Home > Weather > Erkelenz > Past weeks

Flag for Germany Past Weather in Erkelenz, North Rhine-Westphalia, Germany — Yesterday and Last 2 Weeks

Now
73 °F

Sunny.


Feels Like: 76 °F
Forecast: 66 / 88 °F
Wind: 7 mph from Southeast

Location: Monchengladbach Airport

Current Time: Aug 24, 2016 at 10:50:53 AM

Latest Report: Aug 24, 2016 at 9:50 AM


Visibility: 10 mi

Pressure: 30.18 "Hg

Humidity: 61%

Dew Point: 59 °F

Location of ErkelenzLocation

Past Weather in Erkelenz — Graph

°F

Erkelenz Temperature Yesterday

Maximum temperature yesterday: 84 °F (at 4:50 PM)
Minimum temperature yesterday: 57 °F (at 7:50 AM)
Average temperature yesterday: 76 °F

High & Low Weather Summary for the Past Weeks

 TemperatureHumidityPressure
High84 °F (Aug 23, 4:50 PM)100% (Aug 11, 7:50 PM)30.33 "Hg (Aug 11, 7:50 PM)
Low48 °F (Aug 11, 7:50 AM)34% (Aug 18, 3:50 PM)29.77 "Hg (Aug 18, 2:50 PM)
Average67 °F65%30.10 "Hg
* Reported Aug 9 9:20 AM — Aug 24 9:20 AM, Erkelenz, Weather by CustomWeather, © 2016

Note: Actual official high and low records may vary slightly from our data, if they occured in-between our weather recording intervals... More about our weather records

Advertising

Erkelenz Weather History for the Previous 24 Hours

Scroll right to see more
 ConditionsComfort  
Time TempWeatherWind HumidityBarometerVisibility
9:20 AM
Wed, Aug 24
70 °FSunny.8 mph64%30.18 "Hg10 mi
8:50 AM68 °FPassing clouds.8 mph69%30.18 "HgN/A
8:20 AM66 °FSunny.6 mph73%30.18 "Hg10 mi
7:50 AM63 °FSunny.7 mph83%30.18 "Hg10 mi
8:20 PM
Tue, Aug 23
73 °FClear.3 mph74%30.24 "Hg10 mi
7:50 PM79 °FClear.5 mph54%30.24 "Hg10 mi
7:20 PM82 °FClear.3 mph45%30.24 "Hg10 mi
6:50 PM82 °FClear.6 mph45%30.24 "Hg10 mi
6:20 PM82 °FPassing clouds.5 mph45%30.24 "HgN/A
5:50 PM84 °FClear.3 mph37%30.24 "Hg10 mi
5:20 PM82 °FClear.5 mph42%30.24 "Hg10 mi
4:50 PM84 °FClear.2 mph43%30.27 "Hg10 mi
4:20 PM82 °FClear.3 mph42%30.27 "Hg10 mi
3:50 PM82 °FClear.2 mph40%30.27 "Hg10 mi
3:20 PM82 °FClear.3 mph45%30.27 "Hg10 mi
2:50 PM81 °FPassing clouds.6 mph48%30.30 "HgN/A
2:20 PM81 °FClear.3 mph48%30.30 "Hg10 mi
1:50 PM81 °FClear.5 mph51%30.30 "Hg10 mi
1:20 PM79 °FClear.3 mph54%30.30 "Hg10 mi
12:50 PM79 °FSunny.5 mph58%30.30 "Hg10 mi
12:20 PM77 °FPassing clouds.5 mph57%30.33 "HgN/A
11:50 AM75 °FSunny.3 mph65%30.33 "Hg10 mi
11:20 AM73 °FSunny.3 mph65%30.33 "Hg10 mi
10:50 AM73 °FSunny.2 mph65%30.33 "Hg10 mi
10:20 AM72 °FSunny.2 mph73%30.33 "Hg10 mi
Weather by CustomWeather, © 2016

See weather overviewHow to use our weather pages